Weather History for Knox, IN

Change the Weather History Date:

Friday, March 22, 2013

  Actual Average (KVPZ) Record (KVPZ)
Temperature  
Mean Temperature 28 °F 40 °F  
Max Temperature 61 °F 49 °F 83 °F (2012)
Min Temperature 16 °F 31 °F 8 °F (1940)
Degree Days  
Heating Degree Days 37 25  
Month to date heating degree days 636  
Since 1 July heating degree days 5368  
Cooling Degree Days 0 0  
Month to date cooling degree days 0  
Year to date cooling degree days 0  
Moisture  
Dew Point 17 °F    
Average Humidity 68    
Maximum Humidity 97    
Minimum Humidity 33    
Precipitation  
Precipitation 0.00 in 0.09 in 1.22 in (1916)
Month to date precipitation 1.65  
Year to date precipitation 4.82  
Sea Level Pressure  
Sea Level Pressure 30.02 in    
Wind  
Wind Speed 4 mph (WNW)    
Max Wind Speed 14 mph    
Max Gust Speed 17 mph    
Visibility 10 miles    
Events      
T = Trace of Precipitation, MM = Missing Value Source: NWS Daily Summary

Daily Weather History Graph

Daily Weather History Graph

Search for Another Location

Airport:

Trip Planner

Search our weather history database for the weather conditions in past years. The results will help you decide how hot, cold, wet, or windy it might be!

Date:

Astronomy

Mar. 22, 2013 Rise Set
Actual Time 6:46 AM CDT 7:01 PM CDT
Civil Twilight 6:18 AM CDT 7:28 PM CDT
Nautical Twilight 5:46 AM CDT 8:01 PM CDT
Astronomical Twilight 5:13 AM CDT 8:34 PM CDT
Moon 2:25 PM CDT (3/22) 3:49 AM CDT (3/22)
Length of Visible Light 13h 10m
Length of Day
12h 15m
Waxing Gibbous, 77% of the Moon is Illuminated
Mar 22
Waxing Gibbous
Mar 27
Full
Apr 2
Last Quarter
Apr 10
New
Apr 18
First Quarter

Hourly Weather History & Observations

Time (CDT) Temp. Windchill Dew Point Humidity Pressure Visibility Wind Dir Wind Speed Gust Speed Precip Events Conditions
12:15 AM 21.4 °F 16.6 °F 19.4 °F 92% 30.02 in 10.0 mi WSW 3.5 mph - N/A   Clear
12:35 AM 20.5 °F - 18.9 °F 93% 30.02 in 10.0 mi Calm Calm - N/A   Clear
12:55 AM 20.3 °F - 19.0 °F 95% 30.02 in 10.0 mi Calm Calm - N/A   Clear
1:15 AM 20.3 °F - 19.0 °F 95% 30.02 in 10.0 mi Calm Calm - N/A   Clear
1:35 AM 19.9 °F 14.9 °F 18.7 °F 95% 30.02 in 10.0 mi WSW 3.5 mph - N/A   Clear
2:15 AM 19.2 °F - 18.5 °F 97% 30.02 in 10.0 mi Calm Calm - N/A   Clear
2:35 AM 18.9 °F - 18.0 °F 96% 30.02 in 10.0 mi Calm Calm - N/A   Clear
2:55 AM 18.3 °F - 17.6 °F 97% 30.02 in 10.0 mi Calm Calm - N/A   Clear
3:15 AM 18.3 °F - 17.4 °F 96% 30.02 in 10.0 mi Calm Calm - N/A   Clear
3:35 AM 18.1 °F 12.9 °F 17.2 °F 96% 30.02 in 10.0 mi SW 3.5 mph - N/A   Clear
3:55 AM 17.6 °F 12.3 °F 16.9 °F 97% 30.02 in 10.0 mi WSW 3.5 mph - N/A   Clear
4:15 AM 18.1 °F 12.9 °F 17.1 °F 96% 30.02 in 10.0 mi WSW 3.5 mph - N/A   Clear
4:35 AM 18.1 °F 12.9 °F 16.9 °F 95% 30.03 in 10.0 mi WSW 3.5 mph - N/A   Clear
4:55 AM 17.6 °F 12.3 °F 16.3 °F 95% 30.03 in 10.0 mi WSW 3.5 mph - N/A   Clear
5:15 AM 17.4 °F 12.1 °F 16.2 °F 95% 30.03 in 10.0 mi WSW 3.5 mph - N/A   Clear
5:35 AM 17.2 °F 10.2 °F 16.2 °F 96% 30.03 in 10.0 mi WSW 4.6 mph - N/A   Clear
5:55 AM 17.8 °F 10.9 °F 16.5 °F 95% 30.03 in 10.0 mi West 4.6 mph - N/A   Clear
6:15 AM 17.1 °F - 15.8 °F 95% 30.03 in 10.0 mi Calm Calm - N/A   Clear
6:35 AM 16.2 °F - 15.1 °F 95% 30.03 in 10.0 mi Calm Calm - N/A   Clear
6:55 AM 16.2 °F 10.6 °F 14.9 °F 95% 30.03 in 7.0 mi SW 3.5 mph - N/A   Clear
7:15 AM 16.3 °F - 15.3 °F 96% 30.03 in 7.0 mi Calm Calm - N/A   Clear
7:35 AM 17.2 °F - 16.3 °F 96% 30.03 in 10.0 mi Calm Calm - N/A   Clear
7:55 AM 19.2 °F 14.1 °F 18.1 °F 96% 30.03 in 10.0 mi SW 3.5 mph - N/A   Clear
8:15 AM 21.9 °F 14.5 °F 19.9 °F 92% 30.03 in 10.0 mi WSW 5.8 mph - N/A   Clear
8:35 AM 23.9 °F 16.8 °F 21.0 °F 89% 30.03 in 10.0 mi WSW 5.8 mph - N/A   Clear
8:55 AM 25.5 °F 18.7 °F 21.7 °F 86% 30.03 in 10.0 mi West 5.8 mph - N/A   Clear
9:15 AM 27.1 °F 23.2 °F 21.6 °F 80% 30.03 in 10.0 mi West 3.5 mph - N/A   Clear
9:35 AM 28.2 °F 23.1 °F 20.5 °F 73% 30.03 in 10.0 mi WNW 4.6 mph - N/A   Clear
9:55 AM 29.3 °F 25.6 °F 19.6 °F 67% 30.03 in 10.0 mi NW 3.5 mph - N/A   Clear
10:15 AM 30.0 °F 24.1 °F 19.6 °F 65% 30.03 in 10.0 mi West 5.8 mph - N/A   Clear
10:35 AM 31.5 °F 25.8 °F 18.7 °F 59% 30.03 in 10.0 mi WNW 5.8 mph - N/A   Clear
10:55 AM 32.0 °F 24.8 °F 17.1 °F 54% 30.03 in 10.0 mi WNW 8.1 mph - N/A   Clear
11:15 AM 32.2 °F 23.8 °F 16.5 °F 53% 30.04 in 10.0 mi West 10.4 mph - N/A   Clear
11:35 AM 32.9 °F 25.3 °F 15.8 °F 49% 30.04 in 10.0 mi West 9.2 mph - N/A   Clear
11:55 AM 34.2 °F 27.5 °F 15.6 °F 47% 30.04 in 10.0 mi WSW 8.1 mph - N/A   Clear
12:15 PM 35.1 °F 26.4 °F 15.6 °F 45% 30.03 in 10.0 mi WNW 12.7 mph - N/A   Clear
12:35 PM 35.8 °F 28.3 °F 15.3 °F 43% 30.03 in 10.0 mi WNW 10.4 mph - N/A   Clear
1:15 PM 37.0 °F 29.8 °F 14.7 °F 40% 30.02 in 10.0 mi West 10.4 mph 16.1 mph N/A   Clear
1:35 PM 37.6 °F 29.6 °F 14.4 °F 39% 30.01 in 10.0 mi West 12.7 mph 17.3 mph N/A   Clear
1:55 PM 38.7 °F 32.9 °F 14.7 °F 38% 30.01 in 10.0 mi WNW 8.1 mph - N/A   Clear
2:15 PM 38.8 °F 34.6 °F 14.7 °F 37% 30.00 in 10.0 mi West 5.8 mph 9.2 mph N/A   Clear
2:35 PM 39.4 °F 32.3 °F 14.7 °F 37% 29.99 in 10.0 mi West 11.5 mph - N/A   Clear
2:55 PM 39.6 °F 31.7 °F 14.9 °F 37% 29.98 in 10.0 mi WNW 13.8 mph - N/A   Clear
3:15 PM 39.9 °F 32.5 °F 14.9 °F 36% 29.98 in 10.0 mi West 12.7 mph - N/A   Clear
3:35 PM 40.3 °F 33.0 °F 14.5 °F 35% 29.98 in 10.0 mi WNW 12.7 mph 16.1 mph N/A   Clear
3:55 PM 40.5 °F 34.6 °F 15.1 °F 36% 29.98 in 10.0 mi WNW 9.2 mph - N/A   Clear
4:15 PM 40.6 °F 34.8 °F 13.6 °F 33% 29.97 in 10.0 mi West 9.2 mph - N/A   Clear
4:35 PM 40.8 °F 37.8 °F 15.1 °F 35% 29.98 in 10.0 mi WNW 4.6 mph - N/A   Clear
4:55 PM 40.8 °F 34.5 °F 14.9 °F 35% 29.98 in 10.0 mi West 10.4 mph - N/A   Clear
5:15 PM 40.6 °F 36.0 °F 15.4 °F 36% 29.99 in 10.0 mi WNW 6.9 mph - N/A   Clear
5:35 PM 40.5 °F 34.6 °F 15.1 °F 36% 29.99 in 10.0 mi West 9.2 mph - N/A   Clear
5:55 PM 40.1 °F 34.7 °F 15.1 °F 36% 30.00 in 10.0 mi West 8.1 mph - N/A   Clear
6:15 PM 39.7 °F 34.3 °F 14.7 °F 36% 30.00 in 10.0 mi West 8.1 mph - N/A   Clear
6:35 PM 37.8 °F 31.3 °F 15.6 °F 41% 30.00 in 10.0 mi North 9.2 mph - N/A   Clear
6:55 PM 34.3 °F 27.7 °F 16.5 °F 48% 30.01 in 10.0 mi NNE 8.1 mph - N/A   Clear
7:15 PM 31.5 °F 25.8 °F 16.7 °F 54% 30.02 in 10.0 mi NNE 5.8 mph - N/A   Clear
7:35 PM 30.0 °F 24.1 °F 17.2 °F 59% 30.03 in 10.0 mi NNE 5.8 mph - N/A   Clear
7:55 PM 29.3 °F 22.3 °F 16.7 °F 59% 30.02 in 10.0 mi NNE 6.9 mph - N/A   Clear
8:15 PM 28.4 °F 21.2 °F 16.3 °F 61% 30.02 in 10.0 mi NNE 6.9 mph - N/A   Clear
8:35 PM 27.3 °F 20.9 °F 16.3 °F 63% 30.02 in 10.0 mi NNE 5.8 mph - N/A   Clear
8:55 PM 27.5 °F 20.2 °F 16.7 °F 64% 30.02 in 10.0 mi NNE 6.9 mph - N/A   Clear
9:15 PM 27.0 °F 23.0 °F 17.1 °F 66% 30.03 in 10.0 mi NNE 3.5 mph - N/A   Clear
9:35 PM 27.0 °F 23.0 °F 18.1 °F 69% 30.03 in 10.0 mi NNE 3.5 mph - N/A   Clear
9:55 PM 26.8 °F 22.8 °F 18.9 °F 72% 30.04 in 10.0 mi North 3.5 mph - N/A   Clear
10:15 PM 26.6 °F 22.6 °F 19.6 °F 75% 30.05 in 10.0 mi North 3.5 mph - N/A   Clear
10:35 PM 25.5 °F 21.3 °F 19.4 °F 78% 30.06 in 10.0 mi North 3.5 mph - N/A   Clear
11:15 PM 25.9 °F - 18.7 °F 74% 30.05 in 10.0 mi Calm Calm - N/A   Clear
11:35 PM 25.7 °F 21.5 °F 18.5 °F 74% 30.05 in 10.0 mi North 3.5 mph - N/A   Clear